Location: Oberwangen
(47.4286°N, 8.9679°E)
Time: 19:54:00
(UTC+00:00)

Cosmos 1953 Rocket - Pass Details

Date: 01 November 2021
Orbit: 603 x 635 km, 82.5° (Epoch: 03 December)

Event Time Altitude Azimuth Distance (km) Brightness Sun altitude
Rises 17:24:08 0° 354° (N) 2,938 7.0 -13.5°
Reaches altitude 10° 17:26:27 10° 360° (N) 2,021 6.1 -13.9°
Maximum altitude 17:30:50 51° 77° (ENE) 789 3.7 -14.6°
Drops below altitude 10° 17:35:08 10° 154° (SSE) 1,987 5.9 -15.3°
Sets 17:37:23 0° 159° (SSE) 2,883 6.8 -15.7°
